owner,sensor,date,latitude,longitude,vertical_datum,sea_water_practical_salinity,qcFlag 
NERRS,ioos:station:NOAA.NERRS:gndbcwq:1,2015-11-01T00:00:00Z,30.3836,-88.4364,0.88,25.1,1111122 
NERRS,ioos:station:NOAA.NERRS:gndbcwq:1,2015-11-01T01:00:00Z,30.3836,-88.4364,0.88,25.8,1111122 
NERRS,ioos:station:NOAA.NERRS:gndbcwq:1,2015-11-01T02:00:00Z,30.3836,-88.4364,0.84,25.0,1111122 
NERRS,ioos:station:NOAA.NERRS:gndbcwq:1,2015-11-01T03:00:00Z,30.3836,-88.4364,0.88,25.6,1111122 
NERRS,ioos:station:NOAA.NERRS:gndbcwq:1,2015-11-01T04:00:00Z,30.3836,-88.4364,0.92,26.1,1111122 
NERRS,ioos:station:NOAA.NERRS:gndbcwq:1,2015-11-01T05:00:00Z,30.3836,-88.4364,0.93,26.5,1111122 
NERRS,ioos:station:NOAA.NERRS:gndbcwq:1,2015-11-01T06:00:00Z,30.3836,-88.4364,0.97,26.8,1111122 
NERRS,ioos:station:NOAA.NERRS:gndbcwq:1,2015-11-01T08:00:00Z,30.3836,-88.4364,0.97,26.7,1111122 
NERRS,ioos:station:NOAA.NERRS:gndbcwq:1,2015-11-01T09:00:00Z,30.3836,-88.4364,0.93,26.8,1111122 
NERRS,ioos:station:NOAA.NERRS:gndbcwq:1,2015-11-01T10:00:00Z,30.3836,-88.4364,0.85,24.6,1111122 
NERRS,ioos:station:NOAA.NERRS:gndbcwq:1,2015-11-01T11:00:00Z,30.3836,-88.4364,0.79,24.0,1111122 
NERRS,ioos:station:NOAA.NERRS:gndbcwq:1,2015-11-01T12:00:00Z,30.3836,-88.4364,0.73,22.4,1111122 
NERRS,ioos:station:NOAA.NERRS:gndbcwq:1,2015-11-01T13:00:00Z,30.3836,-88.4364,0.65,21.1,1111122 
NERRS,ioos:station:NOAA.NERRS:gndbcwq:1,2015-11-01T14:00:00Z,30.3836,-88.4364,0.55,19.9,1111122 
NERRS,ioos:station:NOAA.NERRS:gndbcwq:1,2015-11-01T15:00:00Z,30.3836,-88.4364,0.45,19.2,1111122 
NERRS,ioos:station:NOAA.NERRS:gndbcwq:1,2015-11-01T16:00:00Z,30.3836,-88.4364,0.44,15.3,1111122 
NERRS,ioos:station:NOAA.NERRS:gndbcwq:1,2015-11-01T17:00:00Z,30.3836,-88.4364,0.48,14.1,1111122 
NERRS,ioos:station:NOAA.NERRS:gndbcwq:1,2015-11-01T18:00:00Z,30.3836,-88.4364,0.44,12.6,1111122 
NERRS,ioos:station:NOAA.NERRS:gndbcwq:1,2015-11-01T19:00:00Z,30.3836,-88.4364,0.46,11.5,1111122 
NERRS,ioos:station:NOAA.NERRS:gndbcwq:1,2015-11-01T20:00:00Z,30.3836,-88.4364,0.49,9.9,1111122 
NERRS,ioos:station:NOAA.NERRS:gndbcwq:1,2015-11-01T21:00:00Z,30.3836,-88.4364,0.49,8.6,1111122 
NERRS,ioos:station:NOAA.NERRS:gndbcwq:1,2015-11-01T22:00:00Z,30.3836,-88.4364,0.54,13.6,1111122 
NERRS,ioos:station:NOAA.NERRS:gndbcwq:1,2015-11-01T23:00:00Z,30.3836,-88.4364,0.62,11.3,1111122 
NERRS,ioos:station:NOAA.NERRS:gndbcwq:1,2015-11-02T00:00:00Z,30.3836,-88.4364,0.65,13.5,1111122 
NERRS,ioos:station:NOAA.NERRS:gndbcwq:1,2015-11-02T01:00:00Z,30.3836,-88.4364,0.74,13.2,1111122 
NERRS,ioos:station:NOAA.NERRS:gndbcwq:1,2015-11-02T02:00:00Z,30.3836,-88.4364,0.81,16.4,1111122 
NERRS,ioos:station:NOAA.NERRS:gndbcwq:1,2015-11-02T03:00:00Z,30.3836,-88.4364,0.86,20.5,1111122 
NERRS,ioos:station:NOAA.NERRS:gndbcwq:1,2015-11-02T04:00:00Z,30.3836,-88.4364,0.91,22.7,1111122 
NERRS,ioos:station:NOAA.NERRS:gndbcwq:1,2015-11-02T05:00:00Z,30.3836,-88.4364,0.95,24.2,1111122 
NERRS,ioos:station:NOAA.NERRS:gndbcwq:1,2015-11-02T06:00:00Z,30.3836,-88.4364,0.98,24.5,1111122 
NERRS,ioos:station:NOAA.NERRS:gndbcwq:1,2015-11-02T07:00:00Z,30.3836,-88.4364,0.97,24.7,1111122 
NERRS,ioos:station:NOAA.NERRS:gndbcwq:1,2015-11-02T08:00:00Z,30.3836,-88.4364,0.92,24.4,1111122 
NERRS,ioos:station:NOAA.NERRS:gndbcwq:1,2015-11-02T09:00:00Z,30.3836,-88.4364,0.87,23.6,1111122 
NERRS,ioos:station:NOAA.NERRS:gndbcwq:1,2015-11-02T10:00:00Z,30.3836,-88.4364,0.86,23.6,1111122 
NERRS,ioos:station:NOAA.NERRS:gndbcwq:1,2015-11-02T11:00:00Z,30.3836,-88.4364,0.85,22.6,1111122 
NERRS,ioos:station:NOAA.NERRS:gndbcwq:1,2015-11-02T12:00:00Z,30.3836,-88.4364,0.8,13.0,1111122 
NERRS,ioos:station:NOAA.NERRS:gndbcwq:1,2015-11-02T13:00:00Z,30.3836,-88.4364,0.73,12.3,1111122 
NERRS,ioos:station:NOAA.NERRS:gndbcwq:1,2015-11-02T14:00:00Z,30.3836,-88.4364,0.68,10.9,1111122 
NERRS,ioos:station:NOAA.NERRS:gndbcwq:1,2015-11-02T15:00:00Z,30.3836,-88.4364,0.63,8.0,1111122 
NERRS,ioos:station:NOAA.NERRS:gndbcwq:1,2015-11-02T16:00:00Z,30.3836,-88.4364,0.58,6.6,1111122 
NERRS,ioos:station:NOAA.NERRS:gndbcwq:1,2015-11-02T17:00:00Z,30.3836,-88.4364,0.53,5.8,1111122 
NERRS,ioos:station:NOAA.NERRS:gndbcwq:1,2015-11-02T18:00:00Z,30.3836,-88.4364,0.52,4.9,1111122 
NERRS,ioos:station:NOAA.NERRS:gndbcwq:1,2015-11-02T19:00:00Z,30.3836,-88.4364,0.52,4.5,1111122 
NERRS,ioos:station:NOAA.NERRS:gndbcwq:1,2015-11-02T20:00:00Z,30.3836,-88.4364,0.51,3.9,1111122 
NERRS,ioos:station:NOAA.NERRS:gndbcwq:1,2015-11-02T21:00:00Z,30.3836,-88.4364,0.47,3.0,1111122 
NERRS,ioos:station:NOAA.NERRS:gndbcwq:1,2015-11-02T22:00:00Z,30.3836,-88.4364,0.44,2.9,1111122 
NERRS,ioos:station:NOAA.NERRS:gndbcwq:1,2015-11-02T23:00:00Z,30.3836,-88.4364,0.51,6.5,1111122 
NERRS,ioos:station:NOAA.NERRS:gndbcwq:1,2015-11-03T00:00:00Z,30.3836,-88.4364,0.58,9.4,1111122 
NERRS,ioos:station:NOAA.NERRS:gndbcwq:1,2015-11-03T01:00:00Z,30.3836,-88.4364,0.64,9.5,1111122 
NERRS,ioos:station:NOAA.NERRS:gndbcwq:1,2015-11-03T02:00:00Z,30.3836,-88.4364,0.68,12.9,1111122 
NERRS,ioos:station:NOAA.NERRS:gndbcwq:1,2015-11-03T03:00:00Z,30.3836,-88.4364,0.7,13.4,1111122 
NERRS,ioos:station:NOAA.NERRS:gndbcwq:1,2015-11-03T04:00:00Z,30.3836,-88.4364,0.74,14.7,1111122 
NERRS,ioos:station:NOAA.NERRS:gndbcwq:1,2015-11-03T05:00:00Z,30.3836,-88.4364,0.8,18.1,1111122 
NERRS,ioos:station:NOAA.NERRS:gndbcwq:1,2015-11-03T06:00:00Z,30.3836,-88.4364,0.84,18.4,1111122 
NERRS,ioos:station:NOAA.NERRS:gndbcwq:1,2015-11-03T07:00:00Z,30.3836,-88.4364,0.85,25.5,1111122 
NERRS,ioos:station:NOAA.NERRS:gndbcwq:1,2015-11-03T08:00:00Z,30.3836,-88.4364,0.84,25.8,1111122 
NERRS,ioos:station:NOAA.NERRS:gndbcwq:1,2015-11-03T09:00:00Z,30.3836,-88.4364,0.82,26.1,1111122 
NERRS,ioos:station:NOAA.NERRS:gndbcwq:1,2015-11-03T10:00:00Z,30.3836,-88.4364,0.79,20.3,1111122 
NERRS,ioos:station:NOAA.NERRS:gndbcwq:1,2015-11-03T11:00:00Z,30.3836,-88.4364,0.77,19.5,1111122 
NERRS,ioos:station:NOAA.NERRS:gndbcwq:1,2015-11-03T12:00:00Z,30.3836,-88.4364,0.76,20.8,1111122 
NERRS,ioos:station:NOAA.NERRS:gndbcwq:1,2015-11-03T13:00:00Z,30.3836,-88.4364,0.75,20.5,1111122 
NERRS,ioos:station:NOAA.NERRS:gndbcwq:1,2015-11-03T14:00:00Z,30.3836,-88.4364,0.72,5.0,1111122 
NERRS,ioos:station:NOAA.NERRS:gndbcwq:1,2015-11-03T15:00:00Z,30.3836,-88.4364,0.66,5.5,1111122 
NERRS,ioos:station:NOAA.NERRS:gndbcwq:1,2015-11-03T16:00:00Z,30.3836,-88.4364,0.59,5.4,1111122 
NERRS,ioos:station:NOAA.NERRS:gndbcwq:1,2015-11-03T17:00:00Z,30.3836,-88.4364,0.57,4.9,1111122 
NERRS,ioos:station:NOAA.NERRS:gndbcwq:1,2015-11-03T18:00:00Z,30.3836,-88.4364,0.57,4.9,1111122 
NERRS,ioos:station:NOAA.NERRS:gndbcwq:1,2015-11-03T19:00:00Z,30.3836,-88.4364,0.57,4.5,1111122 
NERRS,ioos:station:NOAA.NERRS:gndbcwq:1,2015-11-03T20:00:00Z,30.3836,-88.4364,0.55,3.7,1111122 
NERRS,ioos:station:NOAA.NERRS:gndbcwq:1,2015-11-03T21:00:00Z,30.3836,-88.4364,0.53,3.5,1111122 
NERRS,ioos:station:NOAA.NERRS:gndbcwq:1,2015-11-03T22:00:00Z,30.3836,-88.4364,0.55,9.5,1111122 
NERRS,ioos:station:NOAA.NERRS:gndbcwq:1,2015-11-03T23:00:00Z,30.3836,-88.4364,0.58,10.6,1111122 
NERRS,ioos:station:NOAA.NERRS:gndbcwq:1,2015-11-04T00:00:00Z,30.3836,-88.4364,0.61,12.2,1111122 
NERRS,ioos:station:NOAA.NERRS:gndbcwq:1,2015-11-04T01:00:00Z,30.3836,-88.4364,0.65,16.1,1111122 
NERRS,ioos:station:NOAA.NERRS:gndbcwq:1,2015-11-04T02:00:00Z,30.3836,-88.4364,0.67,20.8,1111122 
NERRS,ioos:station:NOAA.NERRS:gndbcwq:1,2015-11-04T03:00:00Z,30.3836,-88.4364,0.7,21.8,1111122 
NERRS,ioos:station:NOAA.NERRS:gndbcwq:1,2015-11-04T04:00:00Z,30.3836,-88.4364,0.73,23.5,1111122 
NERRS,ioos:station:NOAA.NERRS:gndbcwq:1,2015-11-04T05:00:00Z,30.3836,-88.4364,0.74,23.9,1111122 
NERRS,ioos:station:NOAA.NERRS:gndbcwq:1,2015-11-04T06:00:00Z,30.3836,-88.4364,0.75,24.5,1111122 
NERRS,ioos:station:NOAA.NERRS:gndbcwq:1,2015-11-04T07:00:00Z,30.3836,-88.4364,0.77,25.0,1111122 
NERRS,ioos:station:NOAA.NERRS:gndbcwq:1,2015-11-04T08:00:00Z,30.3836,-88.4364,0.8,24.6,1111122 
NERRS,ioos:station:NOAA.NERRS:gndbcwq:1,2015-11-04T09:00:00Z,30.3836,-88.4364,0.81,26.7,1111122 
NERRS,ioos:station:NOAA.NERRS:gndbcwq:1,2015-11-04T10:00:00Z,30.3836,-88.4364,0.79,27.0,1111122 
NERRS,ioos:station:NOAA.NERRS:gndbcwq:1,2015-11-04T11:00:00Z,30.3836,-88.4364,0.75,25.5,1111122 
NERRS,ioos:station:NOAA.NERRS:gndbcwq:1,2015-11-04T12:00:00Z,30.3836,-88.4364,0.73,24.5,1111122 
NERRS,ioos:station:NOAA.NERRS:gndbcwq:1,2015-11-04T13:00:00Z,30.3836,-88.4364,0.72,24.6,1111122 
NERRS,ioos:station:NOAA.NERRS:gndbcwq:1,2015-11-04T14:00:00Z,30.3836,-88.4364,0.71,24.2,1111122 
NERRS,ioos:station:NOAA.NERRS:gndbcwq:1,2015-11-04T15:00:00Z,30.3836,-88.4364,0.67,21.7,1111122 
NERRS,ioos:station:NOAA.NERRS:gndbcwq:1,2015-11-04T16:00:00Z,30.3836,-88.4364,0.62,16.7,1111122 
NERRS,ioos:station:NOAA.NERRS:gndbcwq:1,2015-11-04T18:00:00Z,30.3836,-88.4364,0.54,14.2,1111122 
NERRS,ioos:station:NOAA.NERRS:gndbcwq:1,2015-11-04T19:00:00Z,30.3836,-88.4364,0.54,13.7,1111122 
NERRS,ioos:station:NOAA.NERRS:gndbcwq:1,2015-11-04T20:00:00Z,30.3836,-88.4364,0.57,12.4,1111122 
NERRS,ioos:station:NOAA.NERRS:gndbcwq:1,2015-11-04T21:00:00Z,30.3836,-88.4364,0.6,10.7,1111122 
NERRS,ioos:station:NOAA.NERRS:gndbcwq:1,2015-11-04T22:00:00Z,30.3836,-88.4364,0.59,9.5,1111122 
NERRS,ioos:station:NOAA.NERRS:gndbcwq:1,2015-11-04T23:00:00Z,30.3836,-88.4364,0.6,9.9,1111122 
NERRS,ioos:station:NOAA.NERRS:gndbcwq:1,2015-11-05T00:00:00Z,30.3836,-88.4364,0.6,8.0,1111122 
NERRS,ioos:station:NOAA.NERRS:gndbcwq:1,2015-11-05T01:00:00Z,30.3836,-88.4364,0.64,13.1,1111122 
NERRS,ioos:station:NOAA.NERRS:gndbcwq:1,2015-11-05T02:00:00Z,30.3836,-88.4364,0.68,19.6,1111122 
NERRS,ioos:station:NOAA.NERRS:gndbcwq:1,2015-11-05T03:00:00Z,30.3836,-88.4364,0.73,21.2,1111122 
NERRS,ioos:station:NOAA.NERRS:gndbcwq:1,2015-11-05T04:00:00Z,30.3836,-88.4364,0.75,24.2,1111122 
NERRS,ioos:station:NOAA.NERRS:gndbcwq:1,2015-11-05T05:00:00Z,30.3836,-88.4364,0.73,24.6,1111122 
NERRS,ioos:station:NOAA.NERRS:gndbcwq:1,2015-11-05T06:00:00Z,30.3836,-88.4364,0.69,22.4,1111122 
NERRS,ioos:station:NOAA.NERRS:gndbcwq:1,2015-11-05T07:00:00Z,30.3836,-88.4364,0.69,26.2,1111122 
NERRS,ioos:station:NOAA.NERRS:gndbcwq:1,2015-11-05T08:00:00Z,30.3836,-88.4364,0.72,23.0,1111122 
NERRS,ioos:station:NOAA.NERRS:gndbcwq:1,2015-11-05T09:00:00Z,30.3836,-88.4364,0.75,24.2,1111122 
NERRS,ioos:station:NOAA.NERRS:gndbcwq:1,2015-11-05T10:00:00Z,30.3836,-88.4364,0.77,24.6,1111122 
NERRS,ioos:station:NOAA.NERRS:gndbcwq:1,2015-11-05T11:00:00Z,30.3836,-88.4364,0.73,25.3,1111122 
NERRS,ioos:station:NOAA.NERRS:gndbcwq:1,2015-11-05T12:00:00Z,30.3836,-88.4364,0.69,23.9,1111122 
NERRS,ioos:station:NOAA.NERRS:gndbcwq:1,2015-11-05T13:00:00Z,30.3836,-88.4364,0.68,21.6,1111122 
NERRS,ioos:station:NOAA.NERRS:gndbcwq:1,2015-11-05T14:00:00Z,30.3836,-88.4364,0.71,24.7,1111122 
NERRS,ioos:station:NOAA.NERRS:gndbcwq:1,2015-11-05T15:00:00Z,30.3836,-88.4364,0.73,23.7,1111122 
NERRS,ioos:station:NOAA.NERRS:gndbcwq:1,2015-11-05T16:00:00Z,30.3836,-88.4364,0.7,22.3,1111122 
NERRS,ioos:station:NOAA.NERRS:gndbcwq:1,2015-11-05T17:00:00Z,30.3836,-88.4364,0.65,15.6,1111122 
NERRS,ioos:station:NOAA.NERRS:gndbcwq:1,2015-11-05T18:00:00Z,30.3836,-88.4364,0.58,15.2,1111122 
NERRS,ioos:station:NOAA.NERRS:gndbcwq:1,2015-11-05T19:00:00Z,30.3836,-88.4364,0.6,21.7,1111122 
NERRS,ioos:station:NOAA.NERRS:gndbcwq:1,2015-11-05T20:00:00Z,30.3836,-88.4364,0.61,15.4,1111122 
NERRS,ioos:station:NOAA.NERRS:gndbcwq:1,2015-11-05T21:00:00Z,30.3836,-88.4364,0.64,12.3,1111122 
NERRS,ioos:station:NOAA.NERRS:gndbcwq:1,2015-11-05T22:00:00Z,30.3836,-88.4364,0.65,13.7,1111122 
NERRS,ioos:station:NOAA.NERRS:gndbcwq:1,2015-11-05T23:00:00Z,30.3836,-88.4364,0.66,11.5,1111122 
NERRS,ioos:station:NOAA.NERRS:gndbcwq:1,2015-11-06T00:00:00Z,30.3836,-88.4364,0.66,12.2,1111122 
NERRS,ioos:station:NOAA.NERRS:gndbcwq:1,2015-11-06T01:00:00Z,30.3836,-88.4364,0.68,12.1,1111122 
NERRS,ioos:station:NOAA.NERRS:gndbcwq:1,2015-11-06T02:00:00Z,30.3836,-88.4364,0.71,14.1,1111122 
NERRS,ioos:station:NOAA.NERRS:gndbcwq:1,2015-11-06T03:00:00Z,30.3836,-88.4364,0.77,12.5,1111122 
NERRS,ioos:station:NOAA.NERRS:gndbcwq:1,2015-11-06T04:00:00Z,30.3836,-88.4364,0.78,25.0,1111122 
NERRS,ioos:station:NOAA.NERRS:gndbcwq:1,2015-11-06T05:00:00Z,30.3836,-88.4364,0.77,23.1,1111122 
NERRS,ioos:station:NOAA.NERRS:gndbcwq:1,2015-11-06T06:00:00Z,30.3836,-88.4364,0.73,19.1,1111122 
NERRS,ioos:station:NOAA.NERRS:gndbcwq:1,2015-11-06T07:00:00Z,30.3836,-88.4364,0.7,18.0,1111122 
NERRS,ioos:station:NOAA.NERRS:gndbcwq:1,2015-11-06T08:00:00Z,30.3836,-88.4364,0.69,20.7,1111122 
NERRS,ioos:station:NOAA.NERRS:gndbcwq:1,2015-11-06T09:00:00Z,30.3836,-88.4364,0.7,19.6,1111122 
NERRS,ioos:station:NOAA.NERRS:gndbcwq:1,2015-11-06T10:00:00Z,30.3836,-88.4364,0.71,20.5,1111122 
NERRS,ioos:station:NOAA.NERRS:gndbcwq:1,2015-11-06T11:00:00Z,30.3836,-88.4364,0.7,21.7,1111122 
NERRS,ioos:station:NOAA.NERRS:gndbcwq:1,2015-11-06T12:00:00Z,30.3836,-88.4364,0.67,20.5,1111122 
NERRS,ioos:station:NOAA.NERRS:gndbcwq:1,2015-11-06T13:00:00Z,30.3836,-88.4364,0.66,19.8,1111122 
NERRS,ioos:station:NOAA.NERRS:gndbcwq:1,2015-11-06T14:00:00Z,30.3836,-88.4364,0.68,20.2,1111122 
NERRS,ioos:station:NOAA.NERRS:gndbcwq:1,2015-11-06T15:00:00Z,30.3836,-88.4364,0.72,18.9,1111122 
NERRS,ioos:station:NOAA.NERRS:gndbcwq:1,2015-11-06T16:00:00Z,30.3836,-88.4364,0.73,20.8,1111122 
NERRS,ioos:station:NOAA.NERRS:gndbcwq:1,2015-11-06T17:00:00Z,30.3836,-88.4364,0.7,18.2,1111122 
NERRS,ioos:station:NOAA.NERRS:gndbcwq:1,2015-11-06T18:00:00Z,30.3836,-88.4364,0.64,13.3,1111122 
NERRS,ioos:station:NOAA.NERRS:gndbcwq:1,2015-11-06T19:00:00Z,30.3836,-88.4364,0.61,16.3,1111122 
NERRS,ioos:station:NOAA.NERRS:gndbcwq:1,2015-11-06T20:00:00Z,30.3836,-88.4364,0.65,14.0,1111122 
NERRS,ioos:station:NOAA.NERRS:gndbcwq:1,2015-11-06T21:00:00Z,30.3836,-88.4364,0.68,11.9,1111122 
NERRS,ioos:station:NOAA.NERRS:gndbcwq:1,2015-11-06T22:00:00Z,30.3836,-88.4364,0.71,11.9,1111122 
NERRS,ioos:station:NOAA.NERRS:gndbcwq:1,2015-11-06T23:00:00Z,30.3836,-88.4364,0.73,13.7,1111122 
NERRS,ioos:station:NOAA.NERRS:gndbcwq:1,2015-11-07T00:00:00Z,30.3836,-88.4364,0.73,15.7,1111122 
NERRS,ioos:station:NOAA.NERRS:gndbcwq:1,2015-11-07T01:00:00Z,30.3836,-88.4364,0.76,18.7,1111122 
NERRS,ioos:station:NOAA.NERRS:gndbcwq:1,2015-11-07T02:00:00Z,30.3836,-88.4364,0.78,20.4,1111122 
NERRS,ioos:station:NOAA.NERRS:gndbcwq:1,2015-11-07T03:00:00Z,30.3836,-88.4364,0.79,20.9,1111122 
NERRS,ioos:station:NOAA.NERRS:gndbcwq:1,2015-11-07T04:00:00Z,30.3836,-88.4364,0.8,21.5,1111122 
NERRS,ioos:station:NOAA.NERRS:gndbcwq:1,2015-11-07T05:00:00Z,30.3836,-88.4364,0.77,21.3,1111122 
NERRS,ioos:station:NOAA.NERRS:gndbcwq:1,2015-11-07T06:00:00Z,30.3836,-88.4364,0.72,17.2,1111122 
NERRS,ioos:station:NOAA.NERRS:gndbcwq:1,2015-11-07T07:00:00Z,30.3836,-88.4364,0.68,14.0,1111122 
NERRS,ioos:station:NOAA.NERRS:gndbcwq:1,2015-11-07T08:00:00Z,30.3836,-88.4364,0.64,9.5,1111122 
NERRS,ioos:station:NOAA.NERRS:gndbcwq:1,2015-11-07T09:00:00Z,30.3836,-88.4364,0.61,16.7,1111122 
NERRS,ioos:station:NOAA.NERRS:gndbcwq:1,2015-11-07T10:00:00Z,30.3836,-88.4364,0.6,15.8,1111122 
NERRS,ioos:station:NOAA.NERRS:gndbcwq:1,2015-11-07T11:00:00Z,30.3836,-88.4364,0.61,17.6,1111122 
NERRS,ioos:station:NOAA.NERRS:gndbcwq:1,2015-11-07T12:00:00Z,30.3836,-88.4364,0.62,16.4,1111122 
NERRS,ioos:station:NOAA.NERRS:gndbcwq:1,2015-11-07T13:00:00Z,30.3836,-88.4364,0.61,17.1,1111122 
NERRS,ioos:station:NOAA.NERRS:gndbcwq:1,2015-11-07T14:00:00Z,30.3836,-88.4364,0.62,20.4,1111122 
NERRS,ioos:station:NOAA.NERRS:gndbcwq:1,2015-11-07T15:00:00Z,30.3836,-88.4364,0.63,19.0,1111122 
NERRS,ioos:station:NOAA.NERRS:gndbcwq:1,2015-11-07T16:00:00Z,30.3836,-88.4364,0.63,21.2,1111122 
NERRS,ioos:station:NOAA.NERRS:gndbcwq:1,2015-11-07T17:00:00Z,30.3836,-88.4364,0.63,21.9,1111122 
NERRS,ioos:station:NOAA.NERRS:gndbcwq:1,2015-11-07T18:00:00Z,30.3836,-88.4364,0.62,21.1,1111122 
NERRS,ioos:station:NOAA.NERRS:gndbcwq:1,2015-11-07T19:00:00Z,30.3836,-88.4364,0.59,20.9,1111122 
NERRS,ioos:station:NOAA.NERRS:gndbcwq:1,2015-11-07T20:00:00Z,30.3836,-88.4364,0.58,22.6,1111122 
NERRS,ioos:station:NOAA.NERRS:gndbcwq:1,2015-11-07T21:00:00Z,30.3836,-88.4364,0.59,19.4,1111122 
NERRS,ioos:station:NOAA.NERRS:gndbcwq:1,2015-11-07T22:00:00Z,30.3836,-88.4364,0.62,17.9,1111122 
NERRS,ioos:station:NOAA.NERRS:gndbcwq:1,2015-11-07T23:00:00Z,30.3836,-88.4364,0.65,22.2,1111122 
NERRS,ioos:station:NOAA.NERRS:gndbcwq:1,2015-11-08T00:00:00Z,30.3836,-88.4364,0.66,23.1,1111122 
NERRS,ioos:station:NOAA.NERRS:gndbcwq:1,2015-11-08T01:00:00Z,30.3836,-88.4364,0.65,23.9,1111122 
NERRS,ioos:station:NOAA.NERRS:gndbcwq:1,2015-11-08T02:00:00Z,30.3836,-88.4364,0.63,23.2,1111122 
NERRS,ioos:station:NOAA.NERRS:gndbcwq:1,2015-11-08T03:00:00Z,30.3836,-88.4364,0.6,21.1,1111122 
NERRS,ioos:station:NOAA.NERRS:gndbcwq:1,2015-11-08T04:00:00Z,30.3836,-88.4364,0.59,24.0,1111122 
NERRS,ioos:station:NOAA.NERRS:gndbcwq:1,2015-11-08T05:00:00Z,30.3836,-88.4364,0.56,23.5,1111122 
NERRS,ioos:station:NOAA.NERRS:gndbcwq:1,2015-11-08T06:00:00Z,30.3836,-88.4364,0.51,20.1,1111122 
NERRS,ioos:station:NOAA.NERRS:gndbcwq:1,2015-11-08T07:00:00Z,30.3836,-88.4364,0.48,16.2,1111122 
NERRS,ioos:station:NOAA.NERRS:gndbcwq:1,2015-11-08T08:00:00Z,30.3836,-88.4364,0.39,10.1,1111122 
NERRS,ioos:station:NOAA.NERRS:gndbcwq:1,2015-11-08T09:00:00Z,30.3836,-88.4364,0.41,23.7,1111122 
NERRS,ioos:station:NOAA.NERRS:gndbcwq:1,2015-11-08T10:00:00Z,30.3836,-88.4364,0.5,17.7,1111122 
NERRS,ioos:station:NOAA.NERRS:gndbcwq:1,2015-11-08T11:00:00Z,30.3836,-88.4364,0.52,17.2,1111122 
NERRS,ioos:station:NOAA.NERRS:gndbcwq:1,2015-11-08T12:00:00Z,30.3836,-88.4364,0.52,16.2,1111122 
NERRS,ioos:station:NOAA.NERRS:gndbcwq:1,2015-11-08T13:00:00Z,30.3836,-88.4364,0.53,20.1,1111122 
NERRS,ioos:station:NOAA.NERRS:gndbcwq:1,2015-11-08T14:00:00Z,30.3836,-88.4364,0.61,15.4,1111122 
NERRS,ioos:station:NOAA.NERRS:gndbcwq:1,2015-11-08T15:00:00Z,30.3836,-88.4364,0.69,16.4,1111122 
NERRS,ioos:station:NOAA.NERRS:gndbcwq:1,2015-11-08T16:00:00Z,30.3836,-88.4364,0.76,17.2,1111122 
NERRS,ioos:station:NOAA.NERRS:gndbcwq:1,2015-11-08T17:00:00Z,30.3836,-88.4364,0.78,18.6,1111122 
NERRS,ioos:station:NOAA.NERRS:gndbcwq:1,2015-11-08T18:00:00Z,30.3836,-88.4364,0.71,17.6,1111122 
NERRS,ioos:station:NOAA.NERRS:gndbcwq:1,2015-11-08T19:00:00Z,30.3836,-88.4364,0.63,16.1,1111122 
NERRS,ioos:station:NOAA.NERRS:gndbcwq:1,2015-11-08T20:00:00Z,30.3836,-88.4364,0.55,13.9,1111122 
NERRS,ioos:station:NOAA.NERRS:gndbcwq:1,2015-11-08T21:00:00Z,30.3836,-88.4364,0.55,14.5,1111122 
NERRS,ioos:station:NOAA.NERRS:gndbcwq:1,2015-11-08T22:00:00Z,30.3836,-88.4364,0.58,12.6,1111122 
NERRS,ioos:station:NOAA.NERRS:gndbcwq:1,2015-11-08T23:00:00Z,30.3836,-88.4364,0.62,14.0,1111122 
NERRS,ioos:station:NOAA.NERRS:gndbcwq:1,2015-11-09T00:00:00Z,30.3836,-88.4364,0.68,14.3,1111122 
NERRS,ioos:station:NOAA.NERRS:gndbcwq:1,2015-11-09T01:00:00Z,30.3836,-88.4364,0.74,16.4,1111122 
NERRS,ioos:station:NOAA.NERRS:gndbcwq:1,2015-11-09T02:00:00Z,30.3836,-88.4364,0.74,15.5,1111122 
NERRS,ioos:station:NOAA.NERRS:gndbcwq:1,2015-11-09T03:00:00Z,30.3836,-88.4364,0.71,14.6,1111122 
NERRS,ioos:station:NOAA.NERRS:gndbcwq:1,2015-11-09T04:00:00Z,30.3836,-88.4364,0.69,11.9,1111122 
NERRS,ioos:station:NOAA.NERRS:gndbcwq:1,2015-11-09T05:00:00Z,30.3836,-88.4364,0.69,15.6,1111122 
NERRS,ioos:station:NOAA.NERRS:gndbcwq:1,2015-11-09T06:00:00Z,30.3836,-88.4364,0.67,15.7,1111122 
NERRS,ioos:station:NOAA.NERRS:gndbcwq:1,2015-11-09T07:00:00Z,30.3836,-88.4364,0.62,10.5,1111122 
NERRS,ioos:station:NOAA.NERRS:gndbcwq:1,2015-11-09T08:00:00Z,30.3836,-88.4364,0.54,10.0,1111122 
NERRS,ioos:station:NOAA.NERRS:gndbcwq:1,2015-11-09T09:00:00Z,30.3836,-88.4364,0.51,12.4,1111122 
NERRS,ioos:station:NOAA.NERRS:gndbcwq:1,2015-11-09T10:00:00Z,30.3836,-88.4364,0.52,9.3,1111122 
NERRS,ioos:station:NOAA.NERRS:gndbcwq:1,2015-11-09T11:00:00Z,30.3836,-88.4364,0.53,14.2,1111122 
NERRS,ioos:station:NOAA.NERRS:gndbcwq:1,2015-11-09T12:00:00Z,30.3836,-88.4364,0.55,14.1,1111122 
NERRS,ioos:station:NOAA.NERRS:gndbcwq:1,2015-11-09T13:00:00Z,30.3836,-88.4364,0.55,12.3,1111122 
NERRS,ioos:station:NOAA.NERRS:gndbcwq:1,2015-11-09T14:00:00Z,30.3836,-88.4364,0.51,7.6,1111122 
NERRS,ioos:station:NOAA.NERRS:gndbcwq:1,2015-11-09T15:00:00Z,30.3836,-88.4364,0.52,18.6,1111122 
NERRS,ioos:station:NOAA.NERRS:gndbcwq:1,2015-11-09T16:00:00Z,30.3836,-88.4364,0.6,11.7,1111122 
NERRS,ioos:station:NOAA.NERRS:gndbcwq:1,2015-11-09T17:00:00Z,30.3836,-88.4364,0.64,14.9,1111122 
NERRS,ioos:station:NOAA.NERRS:gndbcwq:1,2015-11-09T18:00:00Z,30.3836,-88.4364,0.67,14.8,1111122 
NERRS,ioos:station:NOAA.NERRS:gndbcwq:1,2015-11-09T19:00:00Z,30.3836,-88.4364,0.67,17.5,1111122 
NERRS,ioos:station:NOAA.NERRS:gndbcwq:1,2015-11-09T20:00:00Z,30.3836,-88.4364,0.63,8.5,1111122 
NERRS,ioos:station:NOAA.NERRS:gndbcwq:1,2015-11-09T21:00:00Z,30.3836,-88.4364,0.55,8.5,1111122 
NERRS,ioos:station:NOAA.NERRS:gndbcwq:1,2015-11-09T22:00:00Z,30.3836,-88.4364,0.56,19.7,1111122 
NERRS,ioos:station:NOAA.NERRS:gndbcwq:1,2015-11-09T23:00:00Z,30.3836,-88.4364,0.64,16.5,1111122 
NERRS,ioos:station:NOAA.NERRS:gndbcwq:1,2015-11-10T00:00:00Z,30.3836,-88.4364,0.7,17.7,1111122 
NERRS,ioos:station:NOAA.NERRS:gndbcwq:1,2015-11-10T01:00:00Z,30.3836,-88.4364,0.74,18.6,1111122 
NERRS,ioos:station:NOAA.NERRS:gndbcwq:1,2015-11-10T02:00:00Z,30.3836,-88.4364,0.76,19.4,1111122 
NERRS,ioos:station:NOAA.NERRS:gndbcwq:1,2015-11-10T03:00:00Z,30.3836,-88.4364,0.77,20.8,1111122 
NERRS,ioos:station:NOAA.NERRS:gndbcwq:1,2015-11-10T04:00:00Z,30.3836,-88.4364,0.77,21.3,1111122 
NERRS,ioos:station:NOAA.NERRS:gndbcwq:1,2015-11-10T05:00:00Z,30.3836,-88.4364,0.76,21.2,1111122 
NERRS,ioos:station:NOAA.NERRS:gndbcwq:1,2015-11-10T06:00:00Z,30.3836,-88.4364,0.72,21.3,1111122 
NERRS,ioos:station:NOAA.NERRS:gndbcwq:1,2015-11-10T07:00:00Z,30.3836,-88.4364,0.67,18.1,1111122 
NERRS,ioos:station:NOAA.NERRS:gndbcwq:1,2015-11-10T08:00:00Z,30.3836,-88.4364,0.62,17.5,1111122 
NERRS,ioos:station:NOAA.NERRS:gndbcwq:1,2015-11-10T09:00:00Z,30.3836,-88.4364,0.56,8.4,1111122 
NERRS,ioos:station:NOAA.NERRS:gndbcwq:1,2015-11-10T10:00:00Z,30.3836,-88.4364,0.53,15.7,1111122 
NERRS,ioos:station:NOAA.NERRS:gndbcwq:1,2015-11-10T11:00:00Z,30.3836,-88.4364,0.5,7.4,1111122 
NERRS,ioos:station:NOAA.NERRS:gndbcwq:1,2015-11-10T12:00:00Z,30.3836,-88.4364,0.5,16.6,1111122 
NERRS,ioos:station:NOAA.NERRS:gndbcwq:1,2015-11-10T13:00:00Z,30.3836,-88.4364,0.54,16.9,1111122 
NERRS,ioos:station:NOAA.NERRS:gndbcwq:1,2015-11-10T14:00:00Z,30.3836,-88.4364,0.57,17.3,1111122 
NERRS,ioos:station:NOAA.NERRS:gndbcwq:1,2015-11-10T15:00:00Z,30.3836,-88.4364,0.55,17.3,1111122 
NERRS,ioos:station:NOAA.NERRS:gndbcwq:1,2015-11-10T16:00:00Z,30.3836,-88.4364,0.54,18.6,1111122 
NERRS,ioos:station:NOAA.NERRS:gndbcwq:1,2015-11-10T17:00:00Z,30.3836,-88.4364,0.56,18.0,1111122 
NERRS,ioos:station:NOAA.NERRS:gndbcwq:1,2015-11-10T18:00:00Z,30.3836,-88.4364,0.6,18.3,1111122 
NERRS,ioos:station:NOAA.NERRS:gndbcwq:1,2015-11-10T19:00:00Z,30.3836,-88.4364,0.58,20.0,1111122 
NERRS,ioos:station:NOAA.NERRS:gndbcwq:1,2015-11-10T20:00:00Z,30.3836,-88.4364,0.58,20.3,1111122 
NERRS,ioos:station:NOAA.NERRS:gndbcwq:1,2015-11-10T21:00:00Z,30.3836,-88.4364,0.6,20.2,1111122 
NERRS,ioos:station:NOAA.NERRS:gndbcwq:1,2015-11-10T22:00:00Z,30.3836,-88.4364,0.6,20.4,1111122 
NERRS,ioos:station:NOAA.NERRS:gndbcwq:1,2015-11-10T23:00:00Z,30.3836,-88.4364,0.63,21.0,1111122 
NERRS,ioos:station:NOAA.NERRS:gndbcwq:1,2015-11-11T00:00:00Z,30.3836,-88.4364,0.67,21.2,1111122 
NERRS,ioos:station:NOAA.NERRS:gndbcwq:1,2015-11-11T01:00:00Z,30.3836,-88.4364,0.73,21.7,1111122 
NERRS,ioos:station:NOAA.NERRS:gndbcwq:1,2015-11-11T02:00:00Z,30.3836,-88.4364,0.77,22.0,1111122 
NERRS,ioos:station:NOAA.NERRS:gndbcwq:1,2015-11-11T03:00:00Z,30.3836,-88.4364,0.78,22.0,1111122 
NERRS,ioos:station:NOAA.NERRS:gndbcwq:1,2015-11-11T04:00:00Z,30.3836,-88.4364,0.75,22.3,1111122 
NERRS,ioos:station:NOAA.NERRS:gndbcwq:1,2015-11-11T05:00:00Z,30.3836,-88.4364,0.7,23.2,1111122 
NERRS,ioos:station:NOAA.NERRS:gndbcwq:1,2015-11-11T06:00:00Z,30.3836,-88.4364,0.65,21.5,1111122 
NERRS,ioos:station:NOAA.NERRS:gndbcwq:1,2015-11-11T07:00:00Z,30.3836,-88.4364,0.6,20.4,1111122 
NERRS,ioos:station:NOAA.NERRS:gndbcwq:1,2015-11-11T08:00:00Z,30.3836,-88.4364,0.54,18.5,1111122 